This is the latest recevied weather packets stored in our database for station/object K9ABJ. If no packets are shown the sender has not sent any weather packets the latest 10 day(s).
| Time | Temp. | Humidity | Pressure | Rain* | Wind** | Luminosity | Snow |
|---|---|---|---|---|---|---|---|
| 1787780833 | 25° C | 82% | 1011.9 hPa | 0 mm | - | 26 W/m² | - |
| 1787780533 | 25.56° C | 80% | 1011.9 hPa | 0 mm | - | 33 W/m² | - |
| 1787780228 | 25.56° C | 79% | 1011.8 hPa | 0 mm | - | 44 W/m² | - |
| 1787779924 | 25.56° C | 79% | 1012.1 hPa | 0 mm | - | 50 W/m² | - |
| 1787779624 | 25.56° C | 78% | 1012.3 hPa | 0 mm | - | 48 W/m² | - |
| 1787779318 | 26.11° C | 77% | 1012.2 hPa | 0 mm | - | 64 W/m² | - |
| 1787779018 | 26.67° C | 75% | 1012.3 hPa | 0 mm | - | 86 W/m² | - |
| 1787778714 | 26.11° C | 76% | 1011.7 hPa | 0 mm | - | 160 W/m² | - |
| 1787778410 | 26.11° C | 77% | 1011.8 hPa | 0 mm | - | 99 W/m² | - |
| 1787778105 | 26.11° C | 77% | 1011.7 hPa | 0 mm | - | 98 W/m² | - |
| 1787777804 | 26.11° C | 76% | 1011.8 hPa | 0 mm | - | 92 W/m² | - |
| 1787777501 | 26.11° C | 76% | 1011.7 hPa | 0 mm | - | 78 W/m² | - |
| 1787777201 | 26.11° C | 76% | 1011.6 hPa | 0 mm | - | 83 W/m² | - |
| 1787776900 | 26.11° C | 75% | 1011.8 hPa | 0 mm | - | 92 W/m² | - |
| 1787776599 | 26.11° C | 75% | 1011.7 hPa | 0 mm | - | 92 W/m² | - |
| 1787776298 | 26.11° C | 75% | 1011.8 hPa | 0 mm | - | 105 W/m² | - |
| 1787775997 | 26.11° C | 76% | 1012.1 hPa | 0 mm | - | 103 W/m² | - |
| 1787775692 | 26.67° C | 74% | 1012.1 hPa | 0 mm | - | 116 W/m² | - |
| 1787775390 | 26.67° C | 74% | 1012.1 hPa | 0 mm | - | 131 W/m² | - |
| 1787775085 | 26.67° C | 74% | 1012.3 hPa | 0 mm | - | 146 W/m² | - |
| 1787774785 | 27.22° C | 72% | 1012.3 hPa | 0 mm | - | 161 W/m² | - |
| 1787774484 | 28.33° C | 70% | 1012.6 hPa | 0 mm | - | 250 W/m² | - |
| 1787774184 | 28.33° C | 70% | 1012.7 hPa | 0 mm | - | 838 W/m² | - |
| 1787773883 | 27.78° C | 70% | 1012.9 hPa | 0 mm | - | 804 W/m² | - |
| 1787773581 | 28.33° C | 69% | 1013 hPa | 0 mm | - | 772 W/m² | - |
* Rain latest hour (hover to see other rain measurements)
** Current wind speed in m/s (hover to see current wind gust speed)